Voltar ao catálogo

FENGYUN 1C DEB

AtivoSSO
NORAD 29786·DEBRIS·🇨🇳 China

Lançado May 10, 1999 de Taiyuan Satellite Launch Center

Loading…

Próximas Passagens (próximas 24 horas)

TLE

AtualizadoSource: Space-Track

Época: Sep 14, 2026, 06:36 UTC

1 29786U 99025CC  26257.27526944  .00000201  00000-0  13636-3 0  9993
2 29786  98.7243 270.9751 0076665 242.8822 178.7118 14.09234829 10406

Acompanhe FENGYUN 1C DEB em tempo real com AllMySat

Download on the App Store